Find Starlink 30957

NORAD ID: 58453 Int'l Des: 2023-183 Owner: SPXS Country: US Constellation: starlink operational
LEOCIRCULAR

Live-Position

3D-Globus wird geladen...

Über Starlink 30957

Beschreibung wird geladen...

Nächste Überflüge

Passes for default location (London). Set your location on the main map for personalized predictions.

Höhenverlauf

Loading altitude history...

Zweizeiliger Elementsatz

1 58453U 23183S 26121.44046635 .00013770 00000-0 50893-3 0 9992
2 58453 43.0001 103.5562 0001405 256.1834 103.8862 15.27582127134800
Epoch: 1. Mai 2026 • Age: 15 hours

Aktueller Status

Höhe 494.8 km
Geschwindigkeit 7.62 km/s
Subsatellitenpunkt -41.86°S, 105.57°E
Startdatum 28. Nov. 2023
Alter 2.4 years
Typ internet

Technische Details

Klassifizierung Payload
Masse 730.00 kg
Trockenmasse 700.00 kg
Gesamtmasse 730.00 kg
Länge 0.30 m
Durchmesser 4.10 m
Spannweite 29.00 m
Form Box + pan
Hersteller SPXS
Bus-Typ Starlink V2M
Phasenstatus In Orbit
Besitzer/Staat SPXS/US

Most Searched